Location: Unspecified
(41.2172°N, 0.0000°E)
Time: 09:07:22
(UTC+00:00)

NANOSAT C BR1 - Visible Passes

Search period start: 04 April 2026 00:00
Search period end: 14 April 2026 00:00
Orbit: 476 x 483 km, 98.1° (Epoch: 29 March)

Date Brightness Start Highest point End Pass type
(mag) Time Alt. Az. Time Alt. Az. Time Alt. Az.
5 Apr ? 19:51:21 10° WSW 19:52:26 11° W 19:53:31 10° WNW visible
6 Apr ? 19:23:03 10° SSW 19:25:57 23° W 19:28:51 10° NW visible
7 Apr ? 18:56:03 10° S 18:59:30 53° W 19:02:59 10° NNW visible
9 Apr ? 19:37:46 10° SW 19:40:05 16° W 19:42:25 10° NW visible
10 Apr ? 19:10:14 10° SSW 19:13:30 35° W 19:16:47 10° NNW visible
12 Apr ? 19:52:39 10° WSW 19:53:55 12° W 19:55:11 10° WNW visible
13 Apr ? 19:24:13 10° SSW 19:27:09 25° W 19:30:07 10° NW visible
